Gesamt
Old Bar Airport YOBR Wetter
There is no TAF data available at YOBR. Showing TAF data for YTRE (7 mi NW).
TRO Terminal Area Forecast (keine Daten für YOBR)
| Date | Time (AEST) | Flight Rules | Wind Dir. | Speed | Type | Height AGL (ft) | Visibility | Remarks | ||||||
|---|---|---|---|---|---|---|---|---|---|---|---|---|---|---|
There is no METAR data available at YOBR. Showing METAR data for YTRE (7 mi NW).
Aktueller METAR-Verlauf TRO (keine Daten für YOBR)
| Date | Time (AEST) | Flight Rules | Wind Dir. | Speed | Type | Height AGL (ft) | Visibility | Temp (°C) | Temp (°F) | Dew Point (°C) | Dew Point (°F) | Rel. Humid. | Pressure | Density Altitude | Remarks |
|---|---|---|---|---|---|---|---|---|---|---|---|---|---|---|---|
| 09-Mai | 04:00 | VFR | 290° | 6 kt | 10000 meters | 12° | 53° | 5° | 41° | 62% | 1021 mb | -552 ft | |||
| 09-Mai | 03:00 | VFR | 280° | 5 kt | 10000 meters | 12° | 53° | 6° | 42° | 67% | 1021 mb | -552 ft | |||
| 09-Mai | 02:00 | VFR | 270° | 7 kt | 10000 meters | 13° | 55° | 6° | 42° | 62% | 1021 mb | -432 ft | |||
| 09-Mai | 01:00 | VFR | 280° | 6 kt | 10000 meters | 13° | 55° | 6° | 42° | 62% | 1021 mb | -432 ft | |||
| 09-Mai | 00:00 | VFR | 270° | 6 kt | 10000 meters | 14° | 57° | 6° | 42° | 58% | 1021 mb | -312 ft | |||
| 08-Mai | 23:00 | VFR | 270° | 7 kt | 10000 meters | 14° | 57° | 6° | 42° | 58% | 1021 mb | -312 ft | |||
| 08-Mai | 22:00 | VFR | 280° | 6 kt | 10000 meters | 14° | 57° | 5° | 41° | 55% | 1021 mb | -312 ft | |||
| 08-Mai | 21:00 | VFR | 270° | 4 kt | 10000 meters | 12° | 53° | 6° | 42° | 67% | 1020 mb | -523 ft | |||
| 08-Mai | 20:00 | VFR | 250° | 5 kt | 10000 meters | 14° | 57° | 6° | 42° | 58% | 1019 mb | -253 ft | |||
| 08-Mai | 19:00 | VFR | 260° | 5 kt | 10000 meters | 15° | 59° | 5° | 41° | 51% | 1018 mb | -104 ft | |||
| 08-Mai | 18:00 | VFR | 260° | 4 kt | 10000 meters | 17° | 62° | 5° | 41° | 45% | 1018 mb | 136 ft | |||
| 08-Mai | 17:00 | VFR | 230° | 7 kt | 10000 meters | 19° | 66° | 4° | 39° | 37% | 1016 mb | 436 ft | |||
| 08-Mai | 16:00 | VFR | 250° | 11 kt | 10000 meters | 21° | 69° | 4° | 39° | 33% | 1016 mb | 676 ft | |||
| 08-Mai | 15:00 | VFR | 260° | 10 kt | 10000 meters | 22° | 71° | 5° | 41° | 33% | 1016 mb | 796 ft | |||
| 08-Mai | 14:00 | VFR | 260° | 12 kt | 10000 meters | 21° | 69° | 4° | 39° | 33% | 1015 mb | 705 ft | |||
| 08-Mai | 13:00 | VFR | 270° | 9 kt | 10000 meters | 20° | 68° | 4° | 39° | 35% | 1016 mb | 556 ft | |||
| 08-Mai | 12:00 | VFR | 260° | 13 kt | 10000 meters | 19° | 66° | 3° | 37° | 34% | 1017 mb | 406 ft | |||
| 08-Mai | 11:00 | VFR | 270° | 12 kt | 10000 meters | 18° | 64° | 3° | 37° | 37% | 1018 mb | 256 ft | |||
| 08-Mai | 10:00 | VFR | 270° | 13 kt | 10000 meters | 16° | 60° | 2° | 35° | 39% | 1019 mb | -13 ft | |||
| 08-Mai | 09:00 | VFR | 280° | 9 kt | 10000 meters | 14° | 57° | 2° | 35° | 44% | 1019 mb | -253 ft | |||
| 08-Mai | 08:00 | VFR | 290° | 10 kt | 10000 meters | 12° | 53° | 1° | 33° | 47% | 1019 mb | -493 ft | |||
| 08-Mai | 07:00 | VFR | 300° | 3 kt | 10000 meters | 9° | 48° | 1° | 33° | 57% | 1019 mb | -853 ft | |||
| 08-Mai | 06:00 | VFR | 300° | 7 kt | 10000 meters | 8° | 46° | 0° | 32° | 57% | 1019 mb | -973 ft | |||
| 08-Mai | 05:00 | VFR | 300° | 7 kt | 10000 meters | 9° | 48° | -1° | 30° | 49% | 1019 mb | -853 ft |
Anmelden
| Ihr Browser wird nicht unterstützt. aktualisieren Sie Ihren Browser |
